Weather History for Everett-Stewart Regional Airp, TN

Change the Weather History Date:

Thursday, December 19, 2013

  Actual Average (KDYR) Record (KDYR)
Temperature  
Mean Temperature 50 °F -  
Max Temperature 60 °F 44 °F 66 °F (2008)
Min Temperature 39 °F 29 °F 12 °F (2000)
Degree Days  
Heating Degree Days 16    
Moisture  
Dew Point 42 °F    
Average Humidity 73    
Maximum Humidity 87    
Minimum Humidity 55    
Precipitation  
Precipitation 0.00 in - - ()
Sea Level Pressure  
Sea Level Pressure 30.03 in    
Wind  
Wind Speed 10 mph (South)    
Max Wind Speed 20 mph    
Max Gust Speed 29 mph    
Visibility 10 miles    
Events      
Averages and records for this station are not official NWS values.
T = Trace of Precipitation, MM = Missing Value Source: NWS Daily Summary

Daily Weather History Graph

Daily Weather History Graph

Search for Another Location

Airport:

Trip Planner

Search our weather history database for the weather conditions in past years. The results will help you decide how hot, cold, wet, or windy it might be!

Date:

Astronomy

Dec. 19, 2013 Rise Set
Actual Time 7:02 AM CST 4:43 PM CST
Civil Twilight 6:34 AM CST 5:12 PM CST
Nautical Twilight 6:01 AM CST 5:44 PM CST
Astronomical Twilight 5:30 AM CST 6:16 PM CST
Moon 7:05 PM CST (12/19) 8:24 AM CST (12/19)
Length of Visible Light 10h 38m
Length of Day
9h 40m
Waning Gibbous, 95% of the Moon is Illuminated
Dec 19
Waning Gibbous
Dec 25
Last Quarter
Jan 1
New
Jan 7
First Quarter
Jan 15
Full

Hourly Weather History & Observations

Time (CST) Temp. Windchill Dew Point Humidity Pressure Visibility Wind Dir Wind Speed Gust Speed Precip Events Conditions
12:15 AM 42.8 °F 38.0 °F 33.8 °F 70% 30.08 in 10.0 mi South 8.1 mph - N/A   Clear
12:35 AM 42.8 °F 38.0 °F 33.8 °F 70% 30.08 in 10.0 mi South 8.1 mph - N/A   Clear
12:55 AM 42.8 °F 38.0 °F 33.8 °F 70% 30.08 in 10.0 mi South 8.1 mph - N/A   Clear
1:15 AM 42.8 °F 39.3 °F 33.8 °F 70% 30.09 in 10.0 mi South 5.8 mph - N/A   Clear
1:35 AM 39.2 °F 35.0 °F 33.8 °F 81% 30.09 in 10.0 mi South 5.8 mph - N/A   Clear
1:55 AM 39.2 °F 34.2 °F 33.8 °F 81% 30.09 in 10.0 mi South 6.9 mph - N/A   Clear
2:15 AM 39.2 °F 33.6 °F 33.8 °F 81% 30.09 in 10.0 mi South 8.1 mph - N/A   Clear
2:35 AM 39.2 °F 34.2 °F 33.8 °F 81% 30.09 in 10.0 mi South 6.9 mph - N/A   Clear
2:55 AM 39.2 °F 34.2 °F 33.8 °F 81% 30.09 in 10.0 mi South 6.9 mph - N/A   Clear
3:15 AM 41.0 °F 35.2 °F 33.8 °F 76% 30.09 in 10.0 mi South 9.2 mph - N/A   Clear
3:35 AM 39.2 °F 33.0 °F 33.8 °F 81% 30.09 in 10.0 mi South 9.2 mph - N/A   Clear
3:55 AM 41.0 °F 35.8 °F 35.6 °F 81% 30.09 in 10.0 mi South 8.1 mph - N/A   Clear
4:15 AM 41.0 °F 36.4 °F 35.6 °F 81% 30.09 in 10.0 mi South 6.9 mph - N/A   Clear
4:35 AM 41.0 °F 35.2 °F 35.6 °F 81% 30.09 in 10.0 mi South 9.2 mph - N/A   Clear
4:55 AM 41.0 °F 35.8 °F 35.6 °F 81% 30.09 in 10.0 mi South 8.1 mph - N/A   Clear
5:15 AM 41.0 °F 36.4 °F 35.6 °F 81% 30.09 in 10.0 mi South 6.9 mph - N/A   Clear
5:35 AM 41.0 °F 35.8 °F 35.6 °F 81% 30.09 in 10.0 mi South 8.1 mph - N/A   Clear
5:55 AM 39.2 °F 33.0 °F 35.6 °F 87% 30.09 in 10.0 mi South 9.2 mph - N/A   Clear
6:15 AM 39.2 °F 33.0 °F 35.6 °F 87% 30.09 in 10.0 mi South 9.2 mph - N/A   Clear
6:35 AM 41.0 °F 36.4 °F 35.6 °F 81% 30.10 in 10.0 mi South 6.9 mph - N/A   Clear
6:55 AM 41.0 °F 37.1 °F 35.6 °F 81% 30.10 in 10.0 mi South 5.8 mph - N/A   Clear
7:15 AM 42.8 °F 38.6 °F 37.4 °F 81% 30.10 in 10.0 mi South 6.9 mph - N/A   Clear
7:35 AM 42.8 °F 38.6 °F 37.4 °F 81% 30.10 in 10.0 mi South 6.9 mph - N/A   Clear
7:55 AM 44.6 °F 39.7 °F 39.2 °F 81% 30.11 in 10.0 mi South 9.2 mph - N/A   Clear
8:15 AM 46.4 °F 42.4 °F 39.2 °F 76% 30.11 in 10.0 mi South 8.1 mph - N/A   Clear
8:35 AM 46.4 °F 41.9 °F 39.2 °F 76% 30.12 in 10.0 mi SSW 9.2 mph - N/A   Clear
8:55 AM 48.2 °F - 39.2 °F 71% 30.11 in 10.0 mi South 11.5 mph - N/A   Clear
9:15 AM 48.2 °F - 41.0 °F 76% 30.11 in 10.0 mi South 12.7 mph - N/A   Clear
9:35 AM 50.0 °F - 42.8 °F 76% 30.12 in 10.0 mi South 10.4 mph - N/A   Mostly Cloudy
9:55 AM 50.0 °F - 41.0 °F 71% 30.12 in 10.0 mi South 9.2 mph - N/A   Mostly Cloudy
10:15 AM 51.8 °F - 42.8 °F 71% 30.11 in 10.0 mi South 9.2 mph - N/A   Partly Cloudy
10:35 AM 53.6 °F - 42.8 °F 67% 30.11 in 10.0 mi SSW 11.5 mph - N/A   Scattered Clouds
10:55 AM 55.4 °F - 42.8 °F 63% 30.10 in 10.0 mi South 11.5 mph - N/A   Mostly Cloudy
11:15 AM 57.2 °F - 44.6 °F 63% 30.09 in 10.0 mi South 13.8 mph - N/A   Scattered Clouds
11:35 AM 57.2 °F - 44.6 °F 63% 30.09 in 10.0 mi South 11.5 mph - N/A   Clear
11:55 AM 57.2 °F - 44.6 °F 63% 30.08 in 10.0 mi South 11.5 mph - N/A   Partly Cloudy
12:15 PM 59.0 °F - 42.8 °F 55% 30.06 in 10.0 mi SSW 11.5 mph 28.8 mph N/A   Partly Cloudy
12:35 PM 57.2 °F - 42.8 °F 59% 30.06 in 10.0 mi SSW 17.3 mph - N/A   Clear
12:55 PM 59.0 °F - 44.6 °F 59% 30.04 in 10.0 mi SW 15.0 mph - N/A   Clear
1:15 PM 60.8 °F - 44.6 °F 55% 30.04 in 10.0 mi SSW 15.0 mph - N/A   Partly Cloudy
1:35 PM 59.0 °F - 46.4 °F 63% 30.03 in 10.0 mi SSW 12.7 mph - N/A   Mostly Cloudy
1:55 PM 60.8 °F - 46.4 °F 59% 30.02 in 10.0 mi South 13.8 mph - N/A   Scattered Clouds
2:15 PM 60.8 °F - 46.4 °F 59% 30.02 in 10.0 mi SSW 17.3 mph - N/A   Scattered Clouds
2:35 PM 57.2 °F - 46.4 °F 67% 30.01 in 10.0 mi South 10.4 mph - N/A   Scattered Clouds
2:55 PM 57.2 °F - 46.4 °F 67% 30.00 in 10.0 mi South 16.1 mph - N/A   Partly Cloudy
3:15 PM 55.4 °F - 46.4 °F 72% 30.00 in 10.0 mi South 10.4 mph - N/A   Scattered Clouds
3:35 PM 55.4 °F - 46.4 °F 72% 29.99 in 10.0 mi South 13.8 mph - N/A   Scattered Clouds
3:55 PM 55.4 °F - 46.4 °F 72% 29.98 in 10.0 mi South 11.5 mph - N/A   Clear
4:15 PM 55.4 °F - 46.4 °F 72% 29.99 in 10.0 mi South 12.7 mph - N/A   Clear
4:35 PM 53.6 °F - 46.4 °F 77% 29.98 in 10.0 mi South 13.8 mph - N/A   Clear
4:55 PM 53.6 °F - 46.4 °F 77% 29.97 in 10.0 mi SSE 10.4 mph - N/A   Scattered Clouds
5:15 PM 53.6 °F - 46.4 °F 77% 29.96 in 10.0 mi SSE 11.5 mph - N/A   Scattered Clouds
5:35 PM 53.6 °F - 46.4 °F 77% 29.96 in 10.0 mi SSE 10.4 mph - N/A   Clear
5:55 PM 51.8 °F - 46.4 °F 82% 29.95 in 10.0 mi SE 10.4 mph - N/A   Partly Cloudy
6:15 PM 51.8 °F - 46.4 °F 82% 29.95 in 10.0 mi SSE 8.1 mph - N/A   Mostly Cloudy
6:35 PM 53.6 °F - 46.4 °F 77% 29.95 in 10.0 mi SSE 10.4 mph - N/A   Overcast
6:55 PM 53.6 °F - 46.4 °F 77% 29.95 in 10.0 mi South 11.5 mph - N/A   Overcast
7:15 PM 55.4 °F - 46.4 °F 72% 29.96 in 10.0 mi SSE 11.5 mph - N/A   Overcast
7:35 PM 55.4 °F - 46.4 °F 72% 29.95 in 10.0 mi SSE 12.7 mph - N/A   Overcast
7:55 PM 55.4 °F - 46.4 °F 72% 29.94 in 10.0 mi South 17.3 mph - N/A   Overcast
8:15 PM 55.4 °F - 46.4 °F 72% 29.94 in 10.0 mi South 16.1 mph - N/A   Overcast
8:35 PM 55.4 °F - 48.2 °F 77% 29.94 in 10.0 mi South 13.8 mph - N/A   Overcast
8:55 PM 57.2 °F - 48.2 °F 72% 29.94 in 10.0 mi South 15.0 mph - N/A   Overcast
9:15 PM 57.2 °F - 48.2 °F 72% 29.94 in 10.0 mi South 12.7 mph - N/A   Overcast
9:35 PM 57.2 °F - 48.2 °F 72% 29.93 in 10.0 mi SSE 15.0 mph - N/A   Overcast
9:55 PM 57.2 °F - 48.2 °F 72% 29.93 in 10.0 mi South 17.3 mph - N/A   Overcast
10:15 PM 57.2 °F - 48.2 °F 72% 29.94 in 10.0 mi South 18.4 mph - N/A   Overcast
10:35 PM 57.2 °F - 48.2 °F 72% 29.94 in 10.0 mi South 19.6 mph - N/A   Overcast
10:55 PM 57.2 °F - 48.2 °F 72% 29.93 in 10.0 mi South 18.4 mph - N/A   Overcast
11:15 PM 57.2 °F - 48.2 °F 72% 29.94 in 10.0 mi South 15.0 mph - N/A   Overcast
11:35 PM 57.2 °F - 48.2 °F 72% 29.93 in 10.0 mi South 15.0 mph - N/A   Overcast
11:55 PM 57.2 °F - 48.2 °F 72% 29.93 in 10.0 mi South 13.8 mph - N/A   Overcast